Terug naar catalogus

FENGYUN 1C DEB

ActiefPO
NORAD 31297·DEBRIS·🇨🇳 China

Gelanceerd May 10, 1999 vanaf Taiyuan Satellite Launch Center

Loading…

Volgende Passages (komende 24 uur)

TLE

VersSource: Space-Track

Epoch: Sep 14, 2026, 06:21 UTC

1 31297U 99025BPF 26257.26478130  .00000578  00000-0  12267-3 0  9991
2 31297  98.9722  59.9351 0137183   5.5827 116.6361 14.57948903 33148

Volg FENGYUN 1C DEB in realtime met AllMySat

Download on the App Store